Flag for Spain Weather past 2 weeks in Barcelona, Barcelona, Spain

Now
70 °F

Passing clouds.


Feels Like: 70 °F
Forecast: 59 / 72 °F
Wind: 10 mph from Southeast

Location: Barcelona Airport

Current Time: May 26, 2015 at 1:52:14 PM

Latest Report: May 26, 2015 at 1:30 PM


Visibility: N/A

Pressure: 29.98 "Hg

Humidity: 57%

Dew point: 54 °F

Location of BarcelonaLocation

Historic Weather in Barcelona — Graph

°F

Barcelona temperature yesterday

Maximum temperature yesterday: 77 °F (at 3:00 PM)
Minimum temperature yesterday: 59 °F (at 5:30 AM)
Average temperature yesterday: 67 °F

Past Weeks' High & Low Weather Summary

 TemperatureHumidityPressure
High81 °F (May 15, 3:30 PM)100% (May 14, 1:00 AM)30.24 "Hg (May 14, 1:00 AM)
Low52 °F (May 20, 9:00 AM)18% (May 15, 4:30 PM)29.74 "Hg (May 14, 5:30 PM)
Average65 °F68%30.05 "Hg
* Reported May 11 12:00 Noon — May 26 12:00 Noon, Barcelona, Weather by CustomWeather, © 2015

Note: Actual official high and low records may vary slightly from our data, if they occured in-between our weather recording intervals... More about our weather records

Advertising

Barcelona weather history for previous 24 hours

 ConditionsComfort  
Time TempWeatherWind HumidityBarometerVisibility
12:00 PM
Tue, May 26
70 °FPassing clouds.12 mph69%29.98 "HgN/A
11:30 AM70 °FPassing clouds.9 mph64%29.98 "HgN/A
11:00 AM72 °FPassing clouds.5 mph50%29.98 "HgN/A
10:30 AM70 °FPassing clouds.8 mph50%29.98 "HgN/A
10:00 AM70 °FPassing clouds.8 mph50%29.98 "HgN/A
9:30 AM66 °FPassing clouds.10 mph52%29.98 "HgN/A
9:00 AM66 °FPassing clouds.10 mph52%29.98 "HgN/A
8:30 AM64 °FSunny.12 mph56%29.98 "Hg10 mi
8:00 AM63 °FSunny.14 mph59%29.98 "Hg10 mi
7:30 AM63 °FSunny.12 mph59%29.98 "Hg10 mi
7:00 AM63 °FClear.13 mph64%29.98 "Hg10 mi
6:30 AM63 °FClear.10 mph64%29.95 "Hg10 mi
6:00 AM63 °FPassing clouds.10 mph68%29.95 "HgN/A
5:30 AM64 °FClear.10 mph64%29.95 "Hg10 mi
5:00 AM64 °FClear.9 mph73%29.95 "Hg10 mi
4:30 AM64 °FClear.7 mph78%29.95 "Hg10 mi
4:00 AM64 °FClear.7 mph78%29.95 "Hg10 mi
3:30 AM64 °FClear.3 mph78%29.95 "Hg10 mi
3:00 AM64 °FClear.6 mph83%29.95 "Hg10 mi
2:30 AM64 °FClear.2 mph83%29.98 "Hg10 mi
2:00 AM64 °FClear.2 mph83%29.98 "Hg10 mi
1:30 AM64 °FClear.1 mph83%29.98 "Hg10 mi
1:00 AM64 °FClear.1 mph83%29.98 "Hg10 mi
12:30 AM64 °FClear.2 mph83%30.01 "Hg10 mi
12:00 AM66 °FClear.6 mph78%29.98 "Hg10 mi
11:30 PM
Mon, May 25
66 °FClear.3 mph83%30.01 "Hg10 mi
11:00 PM66 °FPassing clouds.3 mph83%30.01 "HgN/A
10:30 PM66 °FPassing clouds.3 mph78%30.01 "HgN/A
10:00 PM66 °FPassing clouds.5 mph83%29.98 "HgN/A
9:30 PM66 °FPassing clouds.6 mph83%29.98 "HgN/A
9:00 PM68 °FPassing clouds.6 mph73%29.98 "HgN/A
8:30 PM68 °FPassing clouds.8 mph73%29.98 "HgN/A
8:00 PM68 °FPassing clouds.8 mph78%29.95 "HgN/A
7:30 PM70 °FPassing clouds.9 mph73%29.95 "HgN/A
7:00 PM70 °FPassing clouds.9 mph73%29.95 "HgN/A
6:30 PM70 °FPassing clouds.12 mph73%29.95 "HgN/A
6:00 PM72 °FPassing clouds.10 mph65%29.95 "HgN/A
5:30 PM72 °FPassing clouds.9 mph61%29.95 "HgN/A
5:00 PM73 °FPassing clouds.10 mph57%29.95 "HgN/A
4:30 PM73 °FPassing clouds.13 mph57%29.95 "HgN/A
4:00 PM73 °FPassing clouds.16 mph61%29.95 "HgN/A
3:30 PM75 °FPassing clouds.17 mph54%29.95 "HgN/A
3:00 PM77 °FPassing clouds.14 mph47%29.98 "HgN/A
2:30 PM75 °FPassing clouds.14 mph50%29.98 "HgN/A
2:00 PM73 °FSunny.15 mph47%29.98 "Hg10 mi
1:30 PM72 °FSunny.15 mph57%30.01 "Hg10 mi
1:00 PM72 °FSunny.13 mph57%30.01 "Hg10 mi
Weather by CustomWeather, © 2015

See weather overviewHow to use our weather pages